{"data":{"norad_id":68507,"epoch":"2026-09-20T14:38:12.104448Z","epoch_age_seconds":84557,"freshness":"FRESH","line1":"1 68507U 26067CV  26263.60986232  .00006053  00000+0  28753-3 0  9993","line2":"2 68507  97.4745 220.9802 0004994  96.5571 263.6233 15.19588470 26401","mean_motion":15.1958847,"eccentricity":0.0004994,"inclination_deg":97.4745,"raan_deg":220.9802,"arg_perigee_deg":96.5571,"mean_anomaly_deg":263.6233,"bstar":0.00028753,"rev_number":2640,"period_min":94.762498428275,"perigee_km":503.6449428357,"apogee_km":510.52190099311,"semimajor_km":6885.2204219144,"source":"CELESTRAK","updated_at":"2026-09-21T09:00:17.346155Z"}}